User: anonymous
Location: Unspecified
(0.0000°N, 0.0000°E)
Time: 13:13:36
(UTC+02:00)
Language:

deb Ariane - Orbit

View from above orbital plane
View from above orbital plane
View from above satellite
View from above satellite

Ground track
Ground track

The orbit data is extracted from the following two-line orbital elements,

1 25668U 92060E   14109.58183300  .00149739  70319-7  27238-2 0  2927
2 25668 007.4561 279.6345 5801068 135.3694 343.1376 04.44241458244279
Epoch (UTC): 19 April 2014 13:57:50
Eccentricity: 0.5801068
inclination: 7.4561°
perigee height: 185 km
apogee height: 18320 km
right ascension of ascending node: 279.6345°
argument of perigee: 135.3694°
revolutions per day: 4.44241458
mean anomaly at epoch: 343.1376°
orbit number at epoch: 24427

The dashed part of the orbit path shows where the satellite is in the earth's shadow,  

DLR